{"data":{"norad_id":61192,"intl_designator":"2024-169D","name":"JILIN-01 KUANFU 02B 4","alt_names":[],"object_type":"PAYLOAD","status":"ACTIVE","operator":null,"country":"PRC","launch_date":"2024-09-20","launch_site_code":"TAISC","launch_vehicle":null,"mission":null,"orbit_class":"UNKNOWN","rcs_meters":null,"size_class":null,"mass_kg":null,"dimensions":null,"purposes":[],"wikipedia_slug":null,"has_3d_model":false,"image_url":null,"decayed_at":null,"tle_current":{"epoch":"2026-05-25T04:37:41.065824Z","epoch_age_seconds":65697,"freshness":"FRESH","line1":"1 61192U 24169D   26145.19283641  .00003995  00000+0  25858-3 0  9999","line2":"2 61192  97.5518 234.4410 0012869 350.7419   9.3571 15.08670598 92363","mean_motion":15.08670598,"eccentricity":0.0012869,"inclination_deg":97.5518,"raan_deg":234.441,"arg_perigee_deg":350.7419,"mean_anomaly_deg":9.3571,"bstar":0.00025858,"rev_number":9236,"period_min":95.448270941912,"perigee_km":531.35794487369,"apogee_km":549.16451824208,"semimajor_km":6918.3982315579,"source":"CELESTRAK","updated_at":"2026-05-25T13:38:02.312380Z"}}}